Location: Skalnate Pleso
(49.1889°N, 20.2450°E)
Time: 09:21:48
(UTC+01:00)

Cosmos 1408 - Pass Details

Date: 19 November 2019
Orbit: 470 x 497 km, 82.6° (Epoch: 11 December)

Event Time Altitude Azimuth Distance (km) Brightness Sun altitude
Rises 05:17:47 0° 203° (SSW) 2,563 6.1 -15.6°
Reaches altitude 10° 05:19:58 10° 210° (SSW) 1,682 5.1 -15.2°
Maximum altitude 05:23:29 44° 284° (WNW) 692 2.8 -14.7°
Drops below altitude 10° 05:27:02 10° 358° (N) 1,682 5.1 -14.1°
Sets 05:29:12 0° 5° (N) 2,563 6.1 -13.8°
